MGSJ

San Jose Airport (Guatemala)

Airport
ICAO code
MGSJ
IATA Code
GSJ
Summary
ICAO Region
CARSAM
ICAO Territory
Location

Puerto San Jose, Escuintla Department

Serving
Puerto San Jose
Elevation
29 ft
Coordinates
13° 56' 7" N , 90° 50' 10" W
KCC
Metar
Observation
MGSJ 271500Z 00000KT 9999 -DZ SCT020 BKN080 26/25 Q1015 A2997
Station
San Jose
Date/Time
2022-11-27 15:00:00
Wind direction
Wind speed
00 kts
Lowest cloud amount
scattered clouds
Temperature
26°C
Dew point
25°C
Humidity
94%
QNH
1015 hPa
Weather condition
light drizzle

San José Airport (Aeropuerto de Puerto San José, Escuintla) serves the city of Puerto San José, the recreative town of Monterrico, the port of Puerto Quetzal and the eastern Guatemalan Pacific coast.

Climatology

Tropical savannah climate (Köppen climate classification Aw)

Runways

Designator Length Width Surface Rops
15/33 2010 46 ASP No/No

Airport map

Aerial View

SKYbrary Partners:

Safety knowledge contributed by: